Weather in Cergy

France     49°02′59″N   2°02′41″E
temp.,
°C
wind,
m/s
gust,
m/s
humid.,
%
clouds,
%
prec.,
mm/h
press.,
hPa
HPBL,
m
11 may, tue
tue1123:00+11ssw2482100 0.3 1008102
02:00+10s12835 0.3 100950
05:00+9w1188100 0.0 100811
08:00+10n0182100 0.0 1009102
11:00+14w3366100 0.0 1009684
14:00+12wsw6775100 0.3 1011740
17:00+16wsw6849100 0.1 10111893
20:00+14wsw5863100 0.1 1012989
12 may, wed
wed1223:00+10wsw410805 0.0 1014526
02:00+8sw39835 0.0 1014314
05:00+6sw278911 0.0 1014232
08:00+8sw248413 0.0 1014243
11:00+12sw3461100 0.0 10131200
14:00+15ssw3343100 0.2 10122071
17:00+17ssw3438100 0.0 10102142
20:00+14s355812 0.1 1010849
13 may, thu
thu1323:00+12se387099 0.0 1009332
02:00+11sse3878100 0.2 1008584
05:00+8wsw499492 2.6 1009633
08:00+7sw389138 2.6 1010294
11:00+9ssw4791100 0.0 1010491
14:00+13sw457496 1.1 10081211
17:00+14sw3672100 0.9 10071049
20:00+12ssw358399 1.9 1007311
14 may, fri
fri1423:00+9ssw389497 0.8 1007250
02:00+8sw39945 0.8 1007263
05:00+7ssw279697 0.0 1007215
08:00+8ssw3593100 0.0 1008256
11:00+11s457599 0.0 1009699
14:00+15sse345555 0.2 10081491
17:00+14s236667 1.3 10081033
20:00+14w006316 1.8 1009206
15 may, sat
sat1523:00+10n11825 0.1 101115
02:00+8wnw24906 0.1 101288
05:00+7w239599 0.0 101287
08:00+8w249099 0.0 1012220
11:00+13wsw3471100 0.0 1013902
14:00+15wsw5663100 0.4 10121515
17:00+14sw6765100 0.6 10121207
20:00+10ssw4994100 1.9 1012692